Weather History for West Palm Beach, FL

Change the Weather History Date:

Thursday, March 20, 2014

  Actual Average Record
Temperature  
Mean Temperature 73 °F 71 °F  
Max Temperature 82 °F 79 °F 92 °F (1965)
Min Temperature 64 °F 63 °F 46 °F (1981)
Degree Days  
Heating Degree Days 0 1  
Month to date heating degree days 2 20  
Since 1 July heating degree days 117 225  
Cooling Degree Days 8 6  
Month to date cooling degree days 128 118  
Year to date cooling degree days 474 353  
Growing Degree Days 23 (Base 50)    
Moisture  
Dew Point 64 °F    
Average Humidity 75    
Maximum Humidity 87    
Minimum Humidity 62    
Precipitation  
Precipitation T in 0.16 in 1.88 in (1918)
Month to date precipitation 0.66 2.94  
Year to date precipitation 12.14 8.89  
Snow  
Snow 0.00 in - - ()
Month to date snowfall 0.0  
Since 1 July snowfall 0.0  
Snow Depth 0.00 in    
Sea Level Pressure  
Sea Level Pressure 30.01 in    
Wind  
Wind Speed 7 mph (ESE)    
Max Wind Speed 17 mph    
Max Gust Speed 22 mph    
Visibility 10 miles    
Events      
T = Trace of Precipitation, MM = Missing Value Source: NWS Daily Summary

Daily Weather History Graph

Daily Weather History Graph

Search for Another Location

Airport:

Trip Planner

Search our weather history database for the weather conditions in past years. The results will help you decide how hot, cold, wet, or windy it might be!

Date:

Astronomy

Mar. 20, 2014 Rise Set
Actual Time 7:24 AM EDT 7:31 PM EDT
Civil Twilight 7:01 AM EDT 7:54 PM EDT
Nautical Twilight 6:34 AM EDT 8:21 PM EDT
Astronomical Twilight 6:07 AM EDT 8:48 PM EDT
Moon 11:26 PM EDT (3/20) 9:50 AM EDT (3/20)
Length of Visible Light 12h 53m
Length of Day
12h 07m
Waning Gibbous, 84% of the Moon is Illuminated
Mar 20
Waning Gibbous
Mar 23
Last Quarter
Mar 30
New
Apr 7
First Quarter
Apr 15
Full

Hourly Weather History & Observations

Time (EDT) Temp. Heat Index Dew Point Humidity Pressure Visibility Wind Dir Wind Speed Gust Speed Precip Events Conditions
12:53 AM 73.0 °F - 62.1 °F 68% 30.04 in 10.0 mi East 4.6 mph - N/A   Scattered Clouds
1:53 AM 71.1 °F - 62.1 °F 73% 30.03 in 10.0 mi SSE 5.8 mph - N/A   Partly Cloudy
2:53 AM 70.0 °F - 62.1 °F 76% 29.99 in 10.0 mi SSE 4.6 mph - N/A   Partly Cloudy
3:53 AM 66.9 °F - 62.1 °F 84% 29.99 in 10.0 mi Calm Calm - N/A   Partly Cloudy
4:53 AM 66.0 °F - 61.0 °F 84% 29.99 in 10.0 mi Calm Calm - N/A   Partly Cloudy
5:53 AM 64.9 °F - 61.0 °F 87% 30.00 in 10.0 mi Calm Calm - N/A   Scattered Clouds
6:53 AM 66.0 °F - 62.1 °F 87% 30.01 in 10.0 mi Calm Calm - N/A   Scattered Clouds
7:53 AM 66.9 °F - 62.1 °F 84% 30.02 in 10.0 mi Calm Calm - N/A   Scattered Clouds
8:53 AM 73.0 °F - 64.0 °F 73% 30.04 in 10.0 mi Calm Calm - N/A   Mostly Cloudy
9:53 AM 77.0 °F - 66.0 °F 69% 30.05 in 10.0 mi Variable 4.6 mph - N/A   Mostly Cloudy
10:13 AM 75.9 °F - 64.0 °F 67% 30.05 in 10.0 mi Calm Calm - N/A   Mostly Cloudy
10:53 AM 78.1 °F - 64.0 °F 62% 30.05 in 10.0 mi East 4.6 mph - N/A   Mostly Cloudy
11:42 AM 77.0 °F - 64.9 °F 66% 30.04 in 10.0 mi ESE 8.1 mph - N/A   Mostly Cloudy
11:49 AM 77.0 °F - 64.4 °F 65% 30.05 in 10.0 mi East 8.1 mph - N/A   Mostly Cloudy
11:53 AM 78.1 °F - 64.9 °F 64% 30.05 in 10.0 mi East 6.9 mph - N/A   Mostly Cloudy
12:51 PM 80.6 °F 82.3 °F 64.4 °F 58% 30.03 in 10.0 mi ESE 9.2 mph - N/A   Mostly Cloudy
12:53 PM 80.1 °F 82.1 °F 66.0 °F 62% 30.03 in 10.0 mi East 10.4 mph - N/A   Mostly Cloudy
1:53 PM 77.0 °F - 64.9 °F 66% 30.01 in 10.0 mi ESE 8.1 mph - 0.00 in   Mostly Cloudy
2:53 PM 79.0 °F - 64.0 °F 60% 29.99 in 10.0 mi ESE 11.5 mph - N/A   Mostly Cloudy
3:53 PM 81.0 °F 83.0 °F 66.0 °F 60% 29.97 in 10.0 mi East 12.7 mph - N/A   Mostly Cloudy
4:53 PM 79.0 °F - 66.0 °F 64% 29.96 in 10.0 mi SE 12.7 mph - N/A   Scattered Clouds
5:53 PM 77.0 °F - 66.0 °F 69% 29.96 in 10.0 mi SE 13.8 mph - N/A   Mostly Cloudy
6:53 PM 75.9 °F - 66.9 °F 74% 29.97 in 10.0 mi SE 11.5 mph - N/A   Mostly Cloudy
7:53 PM 75.0 °F - 66.9 °F 76% 29.98 in 10.0 mi SE 13.8 mph - N/A   Mostly Cloudy
8:53 PM 75.0 °F - 66.0 °F 73% 29.99 in 10.0 mi SE 9.2 mph - N/A   Scattered Clouds
9:53 PM 73.9 °F - 66.0 °F 76% 30.00 in 10.0 mi SE 10.4 mph - N/A   Scattered Clouds
10:53 PM 75.0 °F - 66.0 °F 73% 30.01 in 10.0 mi SE 10.4 mph - N/A   Scattered Clouds
11:53 PM 73.9 °F - 64.9 °F 73% 30.01 in 10.0 mi SE 8.1 mph - N/A   Scattered Clouds